Location: Earls Croome
(52.0667°N, 2.2000°W)
Time: 07:22:36
(UTC+00:00)

COSMOS 2487 - Pass Details

Date: 17 November 2019
Orbit: 443 x 448 km, 74.7° (Epoch: 09 December)

Event Time Altitude Azimuth Distance (km) Brightness Sun altitude
Rises 06:16:58 0° 209° (SSW) 2,430 6.0 -11.3°
Reaches altitude 10° 06:19:02 10° 213° (SSW) 1,565 5.0 -11.0°
Maximum altitude 06:22:27 65° 296° (WNW) 496 2.3 -10.5°
Drops below altitude 10° 06:25:54 10° 19° (NNE) 1,579 5.2 -10.0°
Sets 06:28:01 0° 22° (NNE) 2,456 6.2 -9.7°
